Flag for Canada Weather past 2 weeks in Norman Wells, Northwest Territories, Canada

Now
43 °F

Scattered showers. Mostly cloudy.


Feels Like: 34 °F
Forecast: 31 / 48 °F
Wind: 20 mph from Northwest

Location: Norman Wells

Current Time: Sep 22, 2014 at 8:48:04 PM

Latest Report: Sep 22, 2014 at 8:00 PM


Visibility: 20 mi

Pressure: 29.50 "Hg

Humidity: 76%

Dew point: 36 °F

Location of Norman WellsLocation

Historic Weather in Norman Wells — Graph

°F

Norman Wells temperature yesterday

Maximum temperature yesterday: 61 °F (at 4:00 PM)
Minimum temperature yesterday: 37 °F (at 4:00 AM)
Average temperature yesterday: 49 °F

Past Weeks' High & Low Weather Summary

 TemperatureHumidityPressure
High64 °F (Sep 13, 7:00 PM)100% (Sep 8, 7:00 AM)30.30 "Hg (Sep 8, 7:00 AM)
Low21 °F (Sep 8, 7:00 AM)23% (Sep 9, 7:00 PM)29.23 "Hg (Sep 22, 8:00 AM)
Average45 °F74%29.83 "Hg
* Reported Sep 7 7:00 PM — Sep 22 7:00 PM, Norman Wells, Weather by CustomWeather, © 2014

Note: Actual official high and low records may vary slightly from our data, if they occured in-between our weather recording intervals... More about our weather records

Advertising

Norman Wells weather history for previous 24 hours

 ConditionsComfort  
Time TempWeatherWind HumidityBarometerVisibility
7:00 PM
Sep 22
43 °FScattered showers. Broken clouds.18 mph81%29.47 "Hg30 mi
6:00 PM46 °FBroken clouds.17 mph71%29.43 "Hg30 mi
5:00 PM50 °FBroken clouds.15 mph67%29.39 "Hg30 mi
4:00 PM50 °FBroken clouds.18 mph71%29.35 "Hg30 mi
3:00 PM48 °FPartly sunny.13 mph87%29.34 "Hg30 mi
2:00 PM48 °FMore clouds than sun.16 mph87%29.32 "Hg20 mi
1:00 PM48 °FDrizzle. More clouds than sun.17 mph94%29.29 "Hg10 mi
12:00 PM48 °FDrizzle. More clouds than sun.12 mph100%29.26 "Hg10 mi
11:00 AM48 °FMostly cloudy.6 mph100%29.24 "Hg10 mi
10:00 AM48 °FMostly cloudy.5 mph100%29.23 "Hg10 mi
9:00 AM48 °FMostly cloudy.No wind100%29.23 "Hg10 mi
8:00 AM48 °FLight rain. Overcast.6 mph100%29.23 "Hg10 mi
7:00 AM50 °FLight rain. Mostly cloudy.10 mph88%29.24 "Hg10 mi
6:00 AM52 °FLight rain. Mostly cloudy.17 mph88%29.24 "Hg10 mi
5:00 AM50 °FLight rain. Mostly cloudy.12 mph94%29.30 "Hg10 mi
4:00 AM50 °FLight rain. Mostly cloudy.16 mph94%29.34 "Hg10 mi
3:00 AM52 °FLight rain. Mostly cloudy.15 mph82%29.37 "Hg10 mi
2:00 AM48 °FLight rain. Mostly cloudy.8 mph94%29.41 "Hg10 mi
1:00 AM50 °FLight rain. Mostly cloudy.6 mph82%29.44 "Hg20 mi
12:00 AM50 °FLight rain. Partly cloudy.5 mph76%29.47 "Hg30 mi
11:00 PM
Sep 21
52 °FPartly cloudy.7 mph77%29.50 "Hg30 mi
10:00 PM54 °FBroken clouds.15 mph72%29.52 "Hg30 mi
9:00 PM55 °FPartly sunny.8 mph63%29.54 "Hg30 mi
8:00 PM57 °FPartly sunny.8 mph55%29.56 "Hg30 mi
Weather by CustomWeather, © 2014

See weather overviewHow to use our weather pages